Regional Weather Roundup
Issued by NWS

Home | Current Version | Previous Version | Text Only | Print | Product List | Glossary Off
Versions: 1 2 3 4 5 6 7 8 9 10 11 12 13 14 15 16 17 18 19 20 21 22 23 24 25 26 27 28 29 30 31 32 33 34 35 36 37 38 39 40 41 42 43 44 45 46 47 48 49 50

000
ASUS43 KLSX 160659
RWRMO

WEATHER SUMMARY FOR MISSOURI
NATIONAL WEATHER SERVICE SPRINGFIELD MO
200 AM CDT TUE SEP 16 2014

NOTE: "FAIR" INDICATES FEW OR NO CLOUDS BELOW 12,000 FEET WITH NO
       SIGNIFICANT WEATHER AND/OR OBSTRUCTIONS TO VISIBILITY.
       CURRENT SKY AND/OR WEATHER CONDITIONS ARE NOT AVAILABLE FOR
       CHILLICOTHE AND FARMINGTON.

MOZ001>031-035>038-043-044-053-054-160800-
...NORTHERN AND WESTERN MISSOURI...

CITY           SKY/WX    TMP DP  RH WIND       PRES   REMARKS
KANSAS CTY INT CLEAR     48  47  96 N7        30.25S
KANSAS C DTWN  CLEAR     52  48  86 CALM      30.25R
LEE`S SUMMIT   CLEAR     51  49  92 N6        30.25R
ST JOSEPH      MOCLDY    49  47  93 N5        30.27R
KIRKSVILLE     CLEAR     50  47  89 N5        30.25R

$$
MOZ066>068-077>081-088>096-101>105-160800-
...SOUTHWEST MISSOURI...

CITY           SKY/WX    TMP DP  RH WIND       PRES   REMARKS
SPRINGFIELD    CLOUDY    66  59  78 NE10      30.18R
JOPLIN         CLOUDY    64  60  87 NE6       30.19R

$$
MOZ032>034-039>042-045>050-055>058-069>072-160800-
...CENTRAL MISSOURI...

CITY           SKY/WX    TMP DP  RH WIND       PRES   REMARKS
COLUMBIA       CLOUDY    59  55  87 N7        30.21S
JEFFERSON CITY CLOUDY    61  56  83 N6        30.21R
ROLLA          CLOUDY    61  57  87 NE5       30.18S
SEDALIA        CLOUDY    58  53  84 N6        30.23R
OSAGE BEACH    CLOUDY    61  55  82 NE8       30.20R

$$
MOZ051-052-059>065-160800-
...EAST CENTRAL MISSOURI...

CITY           SKY/WX    TMP DP  RH WIND       PRES   REMARKS
ST LOUIS INTL  CLOUDY    60  56  86 NE9       30.19R
SPIRIT OF STL  CLOUDY    60  56  86 NE6       30.18R
ST CHARLES     CLOUDY    58  56  93 NE7       30.19R

$$
MOZ072>076-082>087-097>100-106>115-160800-
...SOUTH CENTRAL AND SOUTHEAST MISSOURI...

CITY           SKY/WX    TMP DP  RH WIND       PRES   REMARKS
CAPE GIRARDEAU CLOUDY    65  62  90 N10       30.12S
FARMINGTON     CLOUDY    61  57  88 N5        30.18S
POPLAR BLUFF   CLOUDY    67  64  90 CALM      30.11R
WEST PLAINS    CLOUDY    67  64  90 N5        30.17R FOG

$$



USA.gov is the U.S. government's official web portal to all federal, state and local government web resources and services.